カタログに戻る

OSCAR 36

UOSAT 12

運用中アマチュア無線LEO
NORAD 25693·PAYLOAD·🇬🇧 United Kingdom

打ち上げ Apr 21, 1999 から Baikonur Cosmodrome

Loading…

次のパス (今後24時間)

TLE

最新Source: Space-Track

元期: Sep 13, 2026, 21:42 UTC

1 25693U 99021A   26256.90473325  .00000211  00000-0  42709-4 0  9990
2 25693  64.5544 145.3605 0018372 217.9598 142.0215 14.84328378480017

AllMySatでOSCAR 36をリアルタイム追跡

Download on the App Store